Regional Weather Roundup
Issued by NWS

Home | Current Version | Previous Version | Text Only | Print | Product List | Glossary On
Versions: 1 2 3 4 5 6 7 8 9 10 11 12 13 14 15 16 17 18 19 20 21 22 23 24 25 26 27 28 29 30 31 32 33 34 35 36 37 38 39 40 41 42 43 44 45 46 47 48 49 50
000
ASUS43 KFSD 242310
RWRSD

WEATHER ROUNDUP FOR SOUTH DAKOTA
NATIONAL WEATHER SERVICE SIOUX FALLS SD
600 PM CDT MON APR 24 2017

NOTE: "FAIR" INDICATES FEW OR NO CLOUDS BELOW 12,000 FEET WITH NO
SIGNIFICANT WEATHER AND/OR OBSTRUCTIONS TO VISIBILITY.


SDZ001>005-009-010-012>017-250000-
NORTHWEST AND NORTH CENTRAL SOUTH DAKOTA

CITY           SKY/WX    TMP DP  RH WIND       PRES   REMARKS
BUFFALO          N/A     52  39  61 N15       29.54R
FAITH            N/A     53  42  66 N20       29.59F
MOBRIDGE       CLOUDY    45  33  63 N18       29.62R
$$

SDZ012>016-024>037-041>051-057-063-072>074-250000-
SOUTHWEST AND SOUTH CENTRAL SOUTH DAKOTA

CITY           SKY/WX    TMP DP  RH WIND       PRES   REMARKS
RAPID CTY ARPT MOSUNNY   59  39  47 N15       29.57F
PIERRE         PTSUNNY   52  39  61 NW15      29.59R
CUSTER         CLOUDY    47  37  68 E16       29.60S
ELLSWORTH AFB  MOSUNNY   60  40  48 N14       29.57F
PHILIP         MOSUNNY   59  42  53 N14G22    29.57F
PINE RIDGE     MOSUNNY   63  42  46 NE10G17   29.57R
SPEARFISH      FAIR      55  39  54 N9        29.59F
WINNER         FAIR      57  41  55 N13G22    29.57S
$$

SDZ004>011-016>023-039-040-250000-
NORTHEAST SOUTH DAKOTA

CITY           SKY/WX    TMP DP  RH WIND       PRES   REMARKS
ABERDEEN       CLOUDY    46  34  62 N15       29.58R
WATERTOWN      CLOUDY    57  43  59 NW10      29.51R
BROOKINGS      CLOUDY    59  44  57 W22       29.50R
SISSETON         N/A     49  46  90 N13       29.51R
$$

SDZ017-020-022-023-036>040-048>070-250000-
SOUTHEAST SOUTH DAKOTA

CITY           SKY/WX    TMP DP  RH WIND       PRES   REMARKS
SIOUX FALLS    CLOUDY    67  45  45 SW7       29.49S
HURON          PTSUNNY   57  41  55 NW14      29.53S
CHAMBERLAIN    MOSUNNY   55  42  62 W13       29.57S
MITCHELL       MOSUNNY   59  42  53 NW16      29.53S
YANKTON        MOSUNNY   64  43  45 NW15      29.48S
$$

ABBREVIATIONS USED IN REMARKS
   TC - TEMPERATURE IN CELSIUS
  WCI - WIND CHILL INDEX
   HX - HEAT INDEX
  VSB - VISIBILITY




USA.gov is the U.S. government's official web portal to all federal, state and local government web resources and services.